Location: Bannatyne
(13.0833°N, 59.5333°W)
Time: 16:48:46
(UTC+00:00)

Transit 2A - All Passes

Search period start: 28 January 2020 00:00
Search period end: 07 February 2020 00:00
Orbit: 601 x 958 km, 66.7° (Epoch: 28 January)

Date Brightness Start Highest point End Pass type
(mag) Time Alt. Az. Time Alt. Az. Time Alt. Az.
28 Jan - 08:20:37 10° NNE 08:24:57 25° ENE 08:29:34 10° ESE visible
28 Jan - 10:03:26 10° NW 10:07:55 26° WSW 10:12:44 10° SSW visible
28 Jan - 21:04:06 10° SSE 21:07:46 22° ESE 21:11:14 10° ENE daylight
28 Jan - 22:47:31 10° WSW 22:50:39 18° WNW 22:53:41 10° NNW visible
29 Jan - 07:47:46 10° NNE 07:50:49 15° ENE 07:54:00 10° ESE visible
29 Jan - 09:28:43 10° NW 09:33:48 42° WSW 09:39:22 10° S visible
29 Jan - 20:31:45 10° SE 20:33:40 12° ESE 20:35:33 10° E daylight
29 Jan - 22:12:24 10° SW 22:16:33 31° WNW 22:20:28 10° N visible
30 Jan - 08:54:22 10° NNW 08:59:42 70° WSW 09:05:37 10° SSE visible
30 Jan - 21:37:50 10° SSW 21:42:28 56° WNW 21:46:48 10° N daylight
31 Jan - 08:20:16 10° NNW 08:25:37 73° ENE 08:31:32 10° SSE visible
31 Jan - 21:03:38 10° SSW 21:08:24 80° ESE 21:12:48 10° NNE daylight
01 Feb - 07:46:25 10° N 07:51:32 44° ENE 07:57:08 10° SE visible
01 Feb - 09:31:34 10° WNW 09:34:31 14° WSW 09:37:36 10° SW visible
01 Feb - 20:29:48 10° S 20:34:19 43° ESE 20:38:31 10° NE daylight
02 Feb - 07:12:54 10° N 07:17:26 28° ENE 07:22:21 10° SE visible
02 Feb - 08:56:04 10° WNW 09:00:25 24° WSW 09:05:05 10° SSW visible
02 Feb - 19:56:24 10° SSE 20:00:13 24° ESE 20:03:50 10° NE daylight
02 Feb - 21:40:22 10° WSW 21:43:08 16° WNW 21:45:47 10° NNW daylight
03 Feb - 06:39:51 10° NNE 06:43:19 17° ENE 06:46:59 10° ESE visible
03 Feb - 08:21:15 10° NW 08:26:19 38° WSW 08:31:48 10° S visible
03 Feb - 19:23:46 10° SE 19:26:08 14° ESE 19:28:25 10° ENE daylight
03 Feb - 21:05:04 10° SW 21:09:00 27° WNW 21:12:45 10° N daylight
04 Feb - 07:46:50 10° NNW 07:52:13 63° WSW 07:58:07 10° S visible
04 Feb - 20:30:24 10° SW 20:34:55 49° WNW 20:39:10 10° N daylight
05 Feb - 07:12:41 10° NNW 07:18:07 81° ENE 07:24:07 10° SSE visible
05 Feb - 19:56:08 10° SSW 20:00:50 90° ESE 20:05:13 10° NNE daylight
06 Feb - 06:38:47 10° N 06:44:02 50° ENE 06:49:47 10° SE visible
06 Feb - 08:24:27 10° W 08:27:02 13° WSW 08:29:40 10° SW visible
06 Feb - 19:22:13 10° S 19:26:45 48° ESE 19:30:59 10° NE daylight
